{"data":{"norad_id":69278,"intl_designator":"2026-118M","name":"KUIPER-00593","alt_names":[],"object_type":"PAYLOAD","status":"ACTIVE","operator":null,"country":"US","launch_date":"2026-05-29","launch_site_code":"AFETR","launch_vehicle":null,"mission":null,"orbit_class":"UNKNOWN","rcs_meters":null,"size_class":null,"mass_kg":null,"dimensions":null,"purposes":[],"wikipedia_slug":null,"has_3d_model":false,"image_url":null,"decayed_at":null,"tle_current":{"epoch":"2026-09-20T03:43:24.268800Z","epoch_age_seconds":59914,"freshness":"FRESH","line1":"1 69278U 26118M   26263.15514200  .00001705  00000+0  25273-3 0  9991","line2":"2 69278  51.9013 323.2258 0001293 172.1495 187.9488 14.79925068 18524","mean_motion":14.79925068,"eccentricity":0.0001293,"inclination_deg":51.9013,"raan_deg":323.2258,"arg_perigee_deg":172.1495,"mean_anomaly_deg":187.9488,"bstar":0.00025273,"rev_number":1852,"period_min":97.302223682584,"perigee_km":628.65457333672,"apogee_km":630.46676395383,"semimajor_km":7007.6976686453,"source":"CELESTRAK","updated_at":"2026-09-20T09:00:24.778985Z"}}}